Location: McDonald Observatory
(30.6717°N, 104.0221°W)
Time: 19:10:26
(UTC-05:00)

Daily predictions for brighter satellites

Satellite Brightness Start Highest point End
(mag) Time Altitude Azimuth Time Altitude Azimuth Time Altitude Azimuth
Cosmos 2082 4.3 21:26:48 10° SSW 21:32:20 64° WNW 21:37:56 10° NNE
Cosmos 1378 4.2 21:29:30 10° SSW 21:33:09 51° W 21:36:50 10° N
Cosmos 1934 Rocket 3.9 21:28:11 10° N 21:34:20 75° E 21:40:22 10° S
Cosmos 2297 Rocket 2.8 21:31:20 10° SSW 21:36:54 63° WNW 21:42:31 10° NNE
Cosmos 1842 Rocket 3.9 21:35:02 10° N 21:39:16 47° E 21:43:25 10° SSE
YAOGAN 6 4.4 21:38:55 10° ESE 21:41:22 17° ENE 21:43:49 10° NNE
Cosmos 1741 Rocket 4.2 21:38:11 10° S 21:43:20 53° ESE 21:48:30 10° NNE
SEDSat Delta rocket 3.6 21:39:39 10° W 21:44:10 44° SSW 21:47:53 12° SE
NOSS 3-4 (A) 4.1 21:41:15 10° NNW 21:48:19 58° ENE 21:55:19 12° SE
NOSS 3-4 (C) 4.1 21:41:21 10° NNW 21:48:25 58° ENE 21:55:23 12° SE
Cosmos 1605 Rocket 4.1 21:42:27 10° N 21:48:43 67° E 21:55:01 10° SSE
Spot 2 Rocket 3.6 21:43:43 10° S 21:48:45 79° WSW 21:53:49 10° NNW
Cosmos-2242 4.1 21:44:48 10° NNW 21:48:53 45° W 21:52:59 10° SSW
ATLAS 5 CENTAUR R/B 2.1 21:45:13 10° SW 21:49:45 70° WNW 21:54:35 10° NNE
Aureole 2 Rocket 3.6 21:57:27 10° NNW 22:01:15 46° WSW 22:04:45 10° S
ATLAS 2A CENTAUR R/B 4.4 21:53:57 10° W 22:01:44 74° S 22:36:17 10° ESE
Cosmos 1980 4.1 21:56:28 10° NNW 22:02:06 66° WSW 22:07:42 10° S
CZ-3B Rocket 4.1 21:57:41 10° SW 22:02:23 32° S 22:14:13 14° ESE
Cosmos 1727 Rocket 4.1 21:56:46 10° S 22:03:03 87° W 22:09:26 10° N
Cosmos 1939 Rocket 2.9 22:00:39 13° SSE 22:04:09 62° ENE 22:08:09 10° N
CZ-4B DEB 3.4 22:03:01 21° SE 22:04:27 33° ENE 22:07:09 10° N
Cosmos 1340 Rocket 3.0 22:01:36 10° SSW 22:05:34 75° W 22:09:38 10° N
SJ-11-01 4.3 22:05:39 12° SSE 22:10:01 73° ENE 22:14:46 10° N
Skynet4D Del rocket 4.2 22:04:44 10° W 22:10:13 49° S 22:14:33 19° ESE
Palapa 6 Rocket 4.2 22:05:49 10° WSW 22:10:46 33° S 22:13:12 21° SE
Cosmos 2237 Rocket 2.7 22:06:21 10° NNW 22:11:52 58° WSW 22:17:21 10° S
Cosmos 2221 2.9 22:08:38 10° N 22:12:51 45° E 22:15:27 21° SE
Envisat 3.1 22:08:19 10° S 22:13:23 77° WSW 22:18:29 10° NNW
Meteor 1-29 2.9 22:11:47 10° N 22:15:13 85° WNW 22:18:40 10° SSW
Cosmos 1674 2.7 22:12:57 15° SSE 22:15:53 55° E 22:19:34 10° NNE
SAR-Lupe-4 3.6 22:18:00 25° SSE 22:19:54 61° ENE 22:23:26 10° N
Okean 3 Rocket 3.6 22:17:41 10° S 22:22:12 84° W 22:26:42 10° N
GPS 2-05 Rocket1 2.3 22:19:21 10° WSW 22:22:25 79° SSE 22:24:08 24° ENE
Abrixas 4.0 22:20:38 10° SSW 22:21:39 19° SSW 22:21:39 19° SSW
ARGOS 4.2 22:24:14 21° ESE 22:26:32 29° ENE 22:31:06 10° NNE
Cosmos 2208 Rocket 4.4 22:22:10 10° N 22:27:22 50° ENE 22:30:05 27° SE
SPOT 5 4.2 22:26:16 20° E 22:27:51 24° ENE 22:31:48 10° NNE
Cosmos 1908 3.4 22:26:33 10° N 22:30:20 51° E 22:31:32 36° SE
Lacrosse 5 3.8 22:28:21 10° N 22:31:45 18° NE 22:34:30 12° ENE
KORONAS-FOTON 3.8 22:31:42 31° SSE 22:33:18 60° E 22:37:02 10° NNE
Cosmos 1766 Rocket 3.6 22:31:58 27° SSE 22:34:06 57° E 22:38:21 10° NNE
SL-16 R/B 2.1 22:31:19 10° NNW 22:37:00 89° ENE 22:40:16 26° SSE
Cosmos 1570 Rocket 4.0 22:33:52 10° NNW 22:39:10 75° ENE 22:41:43 31° SSE
SAR-Lupe-1 4.0 22:37:55 36° S 22:39:18 83° WSW 22:42:54 10° NNW
Cosmos 1242 Rocket 2.6 22:36:59 10° N 22:40:40 63° E 22:41:26 49° SE
Atlas Centaur 2 1.1 22:39:10 10° W 22:42:45 52° SSW 22:43:05 50° S
USA 245 4.3 22:44:50 26° ENE 22:44:50 26° ENE 22:47:54 10° NNE
Cosmos 1743 Rocket 4.2 22:50:22 35° E 22:50:22 35° E 22:54:11 10° NNE
Helios 1A 4.5 22:48:18 14° SSW 22:51:18 32° W 22:55:03 10° NW
Delta 2 Rocket 4.1 22:46:40 10° WSW 22:52:22 84° NNW 22:58:11 10° ENE
Cosmos 2228 Rocket 4.1 22:55:36 10° NNE 22:59:34 32° ENE 22:59:34 32° ENE
SL-08 RB Rocket 4.0 23:00:01 44° E 23:00:31 46° ENE 23:04:55 10° N
NOAA 11 4.1 22:58:36 36° S 23:00:56 86° WSW 23:06:23 10° NNW
Terra 3.6 23:02:54 17° ENE 23:02:54 17° ENE 23:05:53 10° NNE
ERS-1 Rocket 3.1 23:01:46 35° S 23:03:53 69° WSW 23:08:55 10° NNW
Cosmos 468 Rocket 4.1 23:00:25 10° N 23:05:25 53° ENE 23:06:13 48° ESE
USA 234 3.5 22:59:36 10° NE 23:06:06 72° NW 23:12:35 10° SW
Cosmos 1459 Rocket 4.3 23:07:20 10° NNW 23:13:31 63° W 23:16:50 28° SSW
Cosmos 332 Rocket 4.0 23:10:43 10° N 23:15:31 53° ENE 23:15:45 53° E
Cosmos 1626 4.4 23:19:15 16° NE 23:19:15 16° NE 23:20:12 10° NNE
Cosmos 220 Rocket 4.3 23:15:55 39° SW 23:17:22 65° WNW 23:21:45 10° N
MetOp-B 4.3 23:16:35 43° S 23:18:18 68° WSW 23:23:38 10° NNW
Nimbus 7 Rocket 4.3 23:12:55 10° NNE 23:18:58 88° ESE 23:21:28 37° SSW
Cosmos 2058 4.2 23:21:06 29° NE 23:21:06 29° NE 23:23:35 10° NNE
H-2A R/B 2.1 23:19:43 57° ESE 23:20:21 62° ENE 23:25:41 10° N
Sakura Rocket 3.9 23:13:02 10° W 23:21:10 76° S 23:22:48 52° ESE
Cosmos 2123 Rocket 4.0 23:20:43 33° SSW 23:23:39 77° W 23:29:51 10° N
Meteor 2-10 4.1 23:21:14 10° N 23:26:53 71° E 23:27:34 64° SE
Cosmos 1726 2.8 23:23:48 10° NNW 23:26:41 51° NNW 23:26:41 51° NNW
SL-14 R/B 3.8 23:28:56 55° WNW 23:28:56 55° WNW 23:32:45 10° N
Cosmos 2263 Rocket 2.0 23:28:34 64° S 23:29:25 81° ESE 23:35:00 10° NNE
Cosmos 1300 3.5 23:27:45 10° N 23:30:38 50° N 23:30:38 50° N
RESURS DK-1 2.8 23:29:23 10° NNW 23:32:49 60° NNW 23:32:49 60° NNW
EO 1 Delta rocket 4.1 23:46:03 61° W 23:46:04 61° W 23:50:37 10° NNW
Cosmos 2151 3.7 23:47:33 51° NNW 23:47:33 51° NNW 23:50:52 10° N
Cosmos 1725 Rocket 4.2 23:46:42 10° NNW 23:52:50 63° W 23:54:01 53° SW
Cosmos 1500 Rocket 4.5 23:55:08 46° WNW 23:55:08 46° WNW 23:59:07 10° N
